Regional Weather Roundup
Issued by NWS

Home | Current Version | Previous Version | Text Only | Print | Product List | Glossary Off
Versions: 1 2 3 4 5 6 7 8 9 10 11 12 13 14 15 16 17 18 19 20 21 22 23 24 25 26 27 28 29 30 31 32 33 34 35 36 37 38 39 40 41 42 43 44 45 46 47 48 49 50

867
ASUS43 KDMX 232001
RWRIA

WEATHER ROUNDUP FOR IOWA
NATIONAL WEATHER SERVICE DES MOINES IA
300 PM CDT MON OCT 23 2017

NOTE: "FAIR" INDICATES FEW OR NO CLOUDS BELOW 12,000 FEET WITH NO
SIGNIFICANT WEATHER AND/OR OBSTRUCTIONS TO VISIBILITY.

* - THESE STATIONS ARE NOT NWS STATIONS...THUS NOT UNDER NWS
QUALITY CONTROL.  THEY ALSO DO NOT REPORT WEATHER SUCH
AS PRECIPITATION OR FOG.

IAZ001>003-012>014-020>022-031>034-043>046-232100-
   NORTHWEST IOWA

CITY           SKY/WX    TMP DP  RH WIND       PRES   REMARKS
CARROLL *      PTSUNNY   59  36  41 NW26G45   29.90S
CHEROKEE *     CLOUDY    53  36  51 NW18G29   29.96R
DENISON *      PTSUNNY   57  36  44 NW29G39   29.96R
LE MARS *      CLOUDY    55  34  44 NW28G35   29.99S
ORANGE CITY *  CLOUDY    54  37  54 NW18G30   29.98R
SHELDON *      CLOUDY    52  34  50 NW26G36   29.95R
SIOUX CITY     CLOUDY    57  35  43 NW31G41   29.98R
SPENCER        CLOUDY    53  36  52 NW22G39   29.93R
STORM LAKE *   MOSUNNY   54  34  47 NW28G39   29.93R
$$

IAZ055>058-069>071-079>083-090>094-232100-
   SOUTHWEST IOWA

CITY           SKY/WX    TMP DP  RH WIND       PRES   REMARKS
ATLANTIC *     MOSUNNY   63  36  36 NW30G38   29.92F
AUDUBON *      PTSUNNY   61  34  36 NW16G32   29.92S
CLARINDA *     MOSUNNY   66  36  32 NW26G35   29.97F
COUNCIL BLFS * MOSUNNY   63  32  31 NW28G40   29.96S
CRESTON *      MOSUNNY   63  37  39 NW28G39   29.91F
HARLAN  *      MOSUNNY   61  34  36 NW33G45   29.97S
LAMONI         MOSUNNY   62  40  44 NW18G35   29.90S
RED OAK *      MOSUNNY   64  32  29 NW28G36   29.95F
SHENANDOAH *   MOSUNNY   64  34  32 NW21G36   29.97F
$$

IAZ047>049-059>061-072>074-084-232100-
   CENTRAL IOWA

CITY           SKY/WX    TMP DP  RH WIND       PRES   REMARKS
AMES           PTSUNNY   61  37  41 NW26G36   29.84F
ANKENY *       PTSUNNY   63  39  42 NW14G23   29.86R
BOONE *        CLOUDY    61  36  39 NW25G33   29.84S
CHARITON *     PTSUNNY   61  43  51 NW15G25   29.86F
DES MOINES     PTSUNNY   66  38  35 NW25G32   29.85F
GRINNELL*      MOSUNNY   58  45  60 NW15G25   29.83F
KNOXVILLE *    MOSUNNY   59  41  51 NW16G25   29.84S
MARSHALLTOWN   SUNNY     61  41  47 NW24G32   29.80F
NEWTON *       SUNNY     61  43  51 NW15G22   29.83S
PELLA *        MOSUNNY   60  43  52 NW15G24   29.85F
PERRY *        CLOUDY    65  32  28 W21G30    29.87S
$$

IAZ004>006-015-016-023>025-035-036-232100-
   NORTH CENTRAL IOWA

CITY           SKY/WX    TMP DP  RH WIND       PRES   REMARKS
ALGONA *       CLOUDY    55  36  47 NW24G35   29.88S
CLARION *      CLOUDY    57  39  51 NW24G32   29.85S
ESTHERVILLE    CLOUDY    53  37  54 NW22G36   29.89S
FORT DODGE *   CLOUDY    57  35  43 NW20G30   29.87S
MASON CITY     PTSUNNY   57  36  45 NW25G35   29.82F
FOREST CITY *  CLOUDY    55  37  50 NW21G30   29.83F
WEBSTER CITY * CLOUDY    59  37  44 NW17G30   29.84R
IOWA FALLS *     N/A     60  38  44 NW18G28   29.84R
$$

IAZ007>011-017>019-026>030-037>042-050>054-066-232100-
   NORTHEAST IOWA

CITY           SKY/WX    TMP DP  RH WIND       PRES   REMARKS
CEDAR RAPIDS   LGT RAIN  54  46  74 NW15      29.78F
CHARLES CITY * MOSUNNY   61  37  41 NW21G30   29.78S
CLINTON *      CLOUDY    60  48  64 W15       29.74F
DECORAH *      MOSUNNY   54  45  71 NW7       29.75S
DUBUQUE        CLOUDY    58  43  57 NW14      29.74F
MONTICELLO *   MOSUNNY   59  45  58 NW16G22   29.75F
OELWEIN *      CLOUDY    54  48  82 NW8       29.78F
WATERLOO       CLOUDY    58  45  62 NW13      29.77F
$$

IAZ064-065-067-068-078-232100-
   EAST CENTRAL IOWA

CITY           SKY/WX    TMP DP  RH WIND       PRES   REMARKS
DAVENPORT      CLOUDY    59  45  59 W9G17     29.76F
IOWA CITY      MOSUNNY   60  44  55 NW15G26   29.79S
MUSCATINE *    MOSUNNY   63  45  51 NW22      29.77S
QUAD CITIES    CLOUDY    61  48  62 W12       29.74F
$$

IAZ062-063-075>077-085>089-095>099-232100-
   SOUTHEAST IOWA

CITY           SKY/WX    TMP DP  RH WIND       PRES   REMARKS
BURLINGTON     MOSUNNY   61  44  53 W9        29.77S
FAIRFIELD *    CLOUDY    57  45  62 NW13      29.80F
FORT MADISON * MOSUNNY   61  45  55 NW10G17   29.79S
KEOKUK *       MOSUNNY   59  45  58 NW12      29.79R
OSKALOOSA *    PTSUNNY   56  45  66 NW14      29.84S
OTTUMWA        CLOUDY    57  46  66 NW17      29.83F
WASHINGTON *   PTSUNNY   57  46  67 NW15      29.81S
$$

ABBREVIATIONS USED IN REMARKS
   TC - TEMPERATURES IN CELSIUS
  WCI - WIND CHILL INDEX
   HX - HEAT INDEX
  VSB - VISIBILITY
$$





USA.gov is the U.S. government's official web portal to all federal, state and local government web resources and services.